Wind_Speed
14 14 14 15 15 15 15 15 14 14 14 14 15 15 15 15 14 14 14 14 14 13 13 12 12 12 12 11 11 10 10 9 9 9 8 7 7 6 5 5 5 4 3
15 16 16 16 17 17 16 16 16 16 16 16 16 17 17 17 17 16 16 16 16 16 15 14 14 14 14 13 12 12 11 11 10 10 9 9 8 7 7 6 6 5 4
17 18 18 18 18 18 18 17 18 18 18 18 18 18 18 18 18 18 18 18 18 17 17 16 16 16 15 15 14 13 13 13 12 11 11 10 9 8 8 7 7 6 6
18 19 19 20 20 20 20 20 20 20 20 20 20 20 20 20 20 20 20 20 19 19 19 18 18 17 17 17 16 16 15 14 14 13 12 12 11 10 9 9 8 7 7
20 20 20 21 21 21 22 22 22 22 22 22 22 22 21 21 21 21 21 22 21 21 21 20 19 19 19 18 18 18 17 16 15 15 14 13 13 12 11 11 10 9 9
21 21 21 22 22 23 23 23 24 24 24 24 23 23 23 23 23 23 22 22 23 23 22 22 21 21 20 20 19 19 19 18 18 17 16 15 14 14 13 13 12 11 11
22 22 22 22 23 24 24 24 24 25 25 25 25 25 25 24 24 25 25 24 24 25 25 24 23 23 22 22 21 20 19 19 19 19 18 17 16 16 15 15 14 13 12
22 22 22 22 23 24 24 25 25 26 26 26 26 26 26 26 26 26 26 26 26 26 26 26 25 25 24 24 23 22 21 21 20 20 20 19 18 18 18 17 16 15 15
22 23 23 22 23 23 24 25 26 26 26 27 27 26 27 27 26 26 27 27 27 27 27 28 28 27 26 26 25 24 23 22 22 22 21 21 20 20 19 19 19 18 17
23 23 23 23 23 23 24 25 26 26 26 26 27 27 27 27 27 27 27 28 28 28 28 28 28 29 28 28 27 27 25 24 23 23 23 22 22 22 21 21 20 20 19
23 23 23 23 23 23 24 25 25 26 26 27 27 28 28 28 28 28 27 27 29 29 29 29 29 30 30 29 29 28 27 26 25 24 24 24 23 23 23 22 22 21 21
23 23 23 23 24 24 24 24 25 26 26 28 28 29 30 30 29 30 29 29 29 30 31 31 30 30 31 31 30 30 29 29 28 26 26 25 25 25 24 24 24 23 23
24 24 24 24 24 24 24 24 25 26 27 28 29 30 31 31 31 32 31 31 31 31 31 32 32 31 31 32 31 31 31 30 30 29 28 27 26 26 26 26 25 25 25
24 24 25 25 24 25 25 25 25 26 27 28 29 30 31 31 32 33 33 32 32 33 33 33 34 34 33 33 34 33 32 33 32 31 30 29 28 27 27 27 27 27 27
24 24 25 25 25 25 25 25 26 27 28 28 29 30 31 32 32 34 35 34 34 34 36 36 36 36 36 36 35 35 34 33 34 34 32 32 31 30 29 29 29 29 29
25 25 25 25 25 26 26 27 27 27 28 28 30 30 30 31 33 35 35 35 35 35 37 38 39 38 38 37 37 37 36 35 36 36 35 34 33 32 31 31 31 31 31
25 25 25 26 26 26 26 26 27 28 29 29 29 29 30 31 32 34 34 34 34 35 37 39 40 40 39 39 39 39 38 38 38 37 37 36 35 35 34 33 33 33 32
26 25 25 25 25 26 27 26 27 28 29 29 28 29 29 30 31 33 34 35 35 36 37 39 39 40 40 40 39 39 39 40 39 38 38 38 37 37 36 36 35 35 34
26 26 25 26 25 25 26 26 26 27 28 28 28 28 29 29 30 32 33 34 36 37 38 39 39 40 40 40 40 40 39 40 40 39 39 39 39 39 39 38 37 37 37
26 26 26 26 25 25 25 26 26 26 27 28 29 29 30 29 30 30 31 32 33 34 36 37 37 39 40 40 40 40 39 39 39 40 40 40 40 40 40 40 39 39 39
27 27 26 26 26 25 25 25 26 26 26 27 28 29 29 29 29 30 31 30 30 31 33 35 36 37 38 39 40 41 40 39 40 41 41 41 41 41 41 41 41 41 41
27 27 27 26 26 26 26 26 26 26 26 27 27 28 29 29 29 30 29 30 30 31 33 34 34 35 37 38 39 40 40 39 41 41 42 43 43 42 42 42 42 42 42
27 27 27 27 26 26 26 26 26 26 26 27 28 27 27 28 28 28 28 29 30 31 31 33 33 34 37 37 38 39 40 41 41 41 42 43 43 43 42 42 43 43 43
27 27 27 27 27 27 27 26 27 26 27 27 27 27 27 27 27 28 28 28 29 30 30 33 33 34 35 36 37 38 39 40 41 42 43 43 44 44 43 43 42 42 42
28 27 27 27 27 27 28 27 27 27 27 27 28 28 28 28 28 28 28 28 28 29 31 32 33 34 35 36 38 38 39 40 41 42 42 44 44 44 43 43 43 43 43
27 27 27 27 27 27 28 28 27 27 27 27 28 28 28 28 28 28 28 28 28 29 29 31 34 34 36 37 38 39 39 40 41 42 43 43 43 43 43 43 44 44 43
Wind_Direction
260 260 258 258 258 257 255 254 253 253 251 249 248 247 246 244 244 242 241 239 236 236 236 235 233 231 230 231 230 228 225 223 220 218 216 214 213 211 208 201 196 195 192
261 260 259 258 258 257 256 255 254 254 252 251 250 249 247 246 245 244 243 242 241 240 238 237 238 236 233 233 233 231 228 225 222 223 223 222 221 219 218 215 212 208 205
261 261 260 259 257 256 256 255 254 254 254 253 252 250 248 248 247 246 244 243 243 243 241 240 240 240 239 235 235 233 231 230 228 228 227 228 230 227 225 224 224 224 221
263 261 261 259 258 257 257 257 256 256 255 254 253 251 249 249 248 246 245 244 243 244 243 243 243 242 242 240 238 235 233 233 233 232 230 231 233 232 231 231 232 233 232
265 263 261 259 258 258 258 258 257 256 256 254 254 252 251 250 248 246 246 245 243 242 243 243 244 244 242 242 240 237 235 235 235 235 235 236 237 237 235 236 236 236 236
265 263 262 260 259 258 258 258 257 256 256 255 254 253 251 250 249 246 246 245 245 244 243 242 242 243 243 243 242 240 238 238 238 238 239 239 240 240 239 239 240 239 238
267 265 264 262 260 258 258 257 256 256 256 256 255 253 253 250 248 247 247 246 246 246 245 243 243 243 243 243 243 243 242 241 241 241 240 240 241 242 242 243 243 242 242
267 266 265 264 262 259 258 257 257 257 257 256 255 254 253 251 249 246 246 246 246 246 246 245 244 243 244 243 244 243 243 243 243 242 242 241 242 242 243 244 244 244 245
267 266 265 263 263 262 260 258 258 258 258 257 254 254 253 250 249 247 246 246 246 246 246 245 244 244 245 244 244 244 243 243 244 244 243 243 243 243 244 245 245 245 247
268 266 265 264 263 262 262 260 258 258 257 256 254 254 253 251 250 248 247 246 246 247 246 245 244 244 244 244 244 243 243 243 244 245 245 244 244 245 244 245 246 246 247
267 266 265 264 263 263 263 261 258 256 255 255 256 255 255 254 252 249 249 247 246 247 247 245 245 244 244 244 244 244 243 244 244 246 246 246 246 246 246 246 246 247 248
267 267 265 265 264 264 263 260 258 256 255 256 257 257 256 255 253 251 253 251 249 247 247 246 245 246 245 245 245 245 244 244 245 246 247 247 247 247 247 248 248 248 250
269 268 267 266 265 263 262 260 258 256 256 257 258 258 257 255 254 254 256 255 252 249 248 248 247 246 245 245 245 245 244 244 244 245 246 247 247 247 248 249 249 250 252
269 268 268 267 265 263 262 261 260 258 257 259 258 259 258 257 256 255 255 257 255 252 249 249 248 248 247 246 246 246 246 245 245 245 246 246 247 248 248 249 250 251 252
269 269 269 268 267 265 262 261 260 259 260 260 259 259 259 258 257 256 255 256 256 254 252 250 250 250 249 248 248 248 248 247 246 246 246 247 247 249 250 250 251 252 253
270 269 269 269 268 266 264 263 263 262 262 261 260 259 260 260 257 256 256 256 255 255 254 251 250 249 248 248 247 248 248 249 247 247 247 248 248 249 250 251 252 252 253
270 270 270 269 269 267 266 265 265 265 264 262 259 260 260 259 260 258 257 257 256 254 253 252 250 249 247 247 246 247 247 247 247 247 247 248 249 250 251 251 252 253 254
269 270 271 270 270 267 265 266 267 267 266 263 260 261 261 260 261 260 259 257 255 254 253 251 250 249 248 247 246 245 245 247 246 247 248 248 249 250 251 251 252 254 255
268 270 270 270 269 267 266 266 268 268 266 263 261 261 262 263 263 263 262 260 257 255 253 252 251 249 248 248 247 245 244 245 245 246 248 248 250 250 251 252 252 254 255
268 268 269 269 268 267 267 267 268 268 266 263 262 263 264 265 266 266 264 261 260 257 255 253 251 249 247 246 247 246 244 245 246 247 247 248 250 251 252 253 253 254 255
268 268 268 268 268 267 267 268 268 267 266 264 264 265 266 268 268 268 266 263 262 259 256 254 252 249 247 245 246 246 245 246 247 248 248 248 250 251 252 253 255 256 257
267 267 267 267 268 268 268 269 269 268 267 265 266 268 268 270 271 267 266 264 262 260 258 255 254 251 248 246 246 246 247 247 247 248 249 249 250 252 253 253 254 256 257
266 267 266 266 267 267 268 267 268 268 268 267 267 268 269 271 270 266 266 267 267 266 260 255 254 253 249 247 247 248 249 250 248 249 249 250 251 252 254 254 255 256 257
266 266 265 266 267 267 268 268 269 270 270 271 270 270 271 272 271 267 268 270 271 269 264 258 256 254 251 250 249 248 250 251 250 249 250 251 252 254 255 255 256 257 257
264 264 264 266 267 267 268 270 269 269 271 271 270 270 271 272 271 269 271 271 271 269 267 263 258 256 253 251 250 250 251 252 252 251 252 253 255 256 256 256 257 258 259
263 263 264 265 267 267 267 268 269 270 271 271 269 269 270 271 271 271 272 271 271 269 268 265 259 257 255 254 252 253 253 254 254 254 254 254 255 256 257 257 258 259 259
Height
5844 5844 5844 5844 5844 5845 5845 5846 5846 5847 5847 5848 5849 5850 5850 5851 5852 5853 5854 5854 5855 5856 5856 5857 5858 5858 5859 5859 5860 5860 5861 5861 5861 5862 5862 5862 5862 5862 5863 5863 5863 5863 5863
5840 5841 5841 5841 5841 5842 5842 5843 5843 5844 5845 5845 5846 5847 5848 5849 5849 5850 5851 5852 5853 5854 5854 5855 5856 5856 5857 5858 5858 5859 5859 5860 5860 5860 5861 5861 5861 5862 5862 5862 5862 5862 5862
5837 5837 5837 5838 5838 5838 5839 5840 5840 5841 5842 5842 5843 5844 5845 5846 5846 5847 5848 5849 5850 5851 5852 5853 5854 5854 5855 5856 5856 5857 5858 5858 5859 5859 5860 5860 5860 5861 5861 5861 5861 5861 5862
5833 5833 5833 5834 5834 5835 5835 5836 5837 5838 5838 5839 5840 5840 5841 5842 5843 5844 5845 5846 5847 5848 5849 5850 5851 5852 5853 5853 5854 5855 5856 5856 5857 5858 5858 5859 5859 5859 5860 5860 5860 5860 5861
5829 5829 5829 5830 5830 5831 5831 5832 5833 5834 5834 5835 5836 5836 5838 5839 5840 5840 5842 5843 5844 5845 5846 5847 5848 5849 5850 5851 5852 5852 5853 5854 5855 5856 5856 5857 5857 5858 5858 5858 5859 5859 5859
5824 5824 5825 5825 5826 5826 5827 5828 5828 5829 5830 5831 5832 5832 5833 5834 5836 5836 5838 5839 5840 5841 5842 5843 5845 5846 5847 5848 5849 5850 5851 5851 5852 5853 5854 5855 5855 5855 5856 5856 5857 5857 5858
5819 5820 5820 5820 5821 5821 5822 5823 5823 5824 5825 5826 5827 5828 5829 5830 5831 5832 5834 5834 5836 5837 5838 5840 5841 5842 5843 5845 5846 5847 5848 5849 5849 5850 5851 5852 5852 5853 5854 5854 5855 5855 5856
5815 5815 5815 5815 5815 5816 5817 5817 5818 5819 5820 5821 5822 5823 5824 5825 5826 5828 5829 5830 5831 5832 5834 5835 5837 5838 5839 5841 5842 5843 5844 5845 5846 5847 5848 5848 5849 5850 5851 5851 5852 5853 5853
5810 5810 5810 5810 5810 5810 5811 5812 5813 5814 5815 5816 5816 5817 5818 5819 5821 5822 5823 5825 5826 5827 5829 5830 5832 5834 5835 5836 5838 5839 5840 5841 5842 5843 5844 5845 5845 5846 5847 5848 5849 5850 5850
5804 5804 5804 5804 5805 5805 5805 5806 5807 5808 5809 5810 5811 5812 5812 5813 5815 5816 5818 5819 5821 5822 5823 5825 5827 5828 5830 5831 5833 5834 5836 5837 5838 5839 5840 5841 5841 5842 5843 5844 5845 5846 5847
5799 5799 5799 5799 5799 5799 5800 5800 5801 5802 5803 5804 5805 5806 5807 5808 5809 5810 5812 5813 5814 5816 5817 5819 5821 5822 5824 5825 5827 5829 5831 5832 5833 5835 5836 5836 5837 5838 5839 5840 5841 5842 5843
5793 5793 5793 5793 5793 5793 5794 5794 5795 5795 5796 5798 5798 5799 5800 5801 5802 5804 5805 5806 5808 5809 5811 5813 5814 5816 5818 5820 5821 5823 5825 5827 5828 5830 5831 5832 5833 5833 5834 5835 5837 5838 5839
5787 5787 5787 5787 5787 5787 5788 5788 5789 5789 5790 5791 5792 5793 5793 5794 5795 5797 5798 5800 5801 5802 5804 5806 5807 5809 5811 5813 5815 5817 5819 5821 5822 5824 5826 5827 5827 5828 5829 5830 5832 5833 5834
5781 5781 5781 5781 5781 5781 5781 5782 5782 5783 5783 5784 5785 5785 5786 5787 5788 5789 5791 5792 5793 5795 5797 5798 5800 5802 5804 5806 5808 5810 5812 5815 5816 5818 5819 5821 5822 5823 5824 5825 5826 5827 5829
5776 5775 5775 5775 5775 5774 5774 5775 5775 5775 5776 5776 5776 5777 5778 5778 5780 5781 5783 5784 5785 5787 5789 5790 5792 5794 5796 5798 5801 5803 5805 5808 5809 5811 5813 5814 5816 5817 5818 5820 5821 5822 5823
5769 5769 5768 5768 5768 5768 5767 5768 5768 5768 5768 5768 5768 5769 5769 5770 5771 5773 5774 5775 5776 5778 5779 5781 5783 5785 5788 5790 5792 5795 5798 5800 5802 5804 5806 5807 5809 5811 5812 5813 5814 5816 5817
5763 5762 5762 5761 5761 5761 5760 5760 5760 5760 5760 5760 5761 5761 5761 5762 5762 5763 5765 5766 5767 5768 5770 5771 5773 5776 5778 5780 5783 5786 5789 5791 5794 5796 5798 5800 5802 5803 5805 5806 5808 5809 5810
5756 5756 5755 5755 5754 5754 5753 5753 5753 5753 5752 5752 5753 5753 5753 5754 5754 5755 5756 5756 5757 5758 5759 5761 5763 5766 5768 5771 5774 5777 5780 5783 5785 5788 5790 5792 5794 5796 5797 5799 5800 5802 5803
5750 5749 5749 5748 5747 5747 5746 5746 5746 5746 5745 5745 5745 5746 5746 5746 5746 5746 5746 5746 5746 5748 5749 5751 5753 5756 5758 5762 5765 5768 5771 5774 5776 5779 5781 5783 5785 5787 5789 5790 5792 5793 5795
5742 5742 5742 5741 5740 5740 5739 5739 5739 5739 5738 5738 5738 5738 5738 5739 5738 5738 5737 5737 5737 5738 5740 5742 5743 5746 5749 5752 5755 5759 5762 5765 5767 5770 5772 5774 5776 5778 5780 5781 5783 5784 5786
5735 5735 5734 5734 5734 5733 5733 5732 5732 5732 5731 5731 5731 5731 5731 5731 5730 5730 5729 5729 5728 5729 5731 5733 5734 5737 5740 5743 5746 5750 5753 5756 5759 5761 5763 5765 5766 5768 5770 5772 5774 5775 5776
5728 5727 5727 5727 5727 5726 5726 5726 5726 5725 5725 5724 5724 5724 5724 5724 5723 5722 5722 5721 5721 5722 5723 5725 5726 5729 5732 5735 5738 5741 5743 5746 5749 5751 5753 5755 5757 5759 5761 5762 5764 5765 5766
5720 5720 5720 5720 5720 5719 5719 5719 5719 5718 5718 5718 5717 5717 5717 5716 5716 5715 5715 5715 5715 5714 5715 5716 5718 5721 5724 5726 5729 5732 5734 5737 5740 5742 5744 5746 5748 5749 5751 5752 5754 5755 5756
5712 5712 5712 5712 5712 5712 5712 5712 5712 5711 5711 5711 5710 5710 5710 5709 5708 5709 5709 5708 5708 5708 5708 5709 5711 5713 5715 5717 5719 5722 5725 5727 5730 5732 5734 5736 5738 5740 5741 5742 5744 5745 5746
5704 5704 5704 5704 5704 5704 5704 5704 5704 5704 5704 5703 5703 5703 5703 5702 5702 5702 5702 5701 5701 5701 5701 5702 5703 5705 5706 5708 5710 5713 5715 5717 5719 5721 5724 5726 5728 5729 5731 5732 5733 5734 5735
5695 5695 5696 5696 5697 5696 5696 5697 5697 5697 5697 5696 5696 5696 5696 5695 5695 5695 5694 5694 5694 5694 5694 5694 5695 5696 5698 5699 5701 5703 5705 5707 5709 5710 5713 5716 5718 5719 5720 5721 5723 5724 5724